Regional Weather Roundup
Issued by NWS Wakefield, VA

Home | Current Version | Previous Version | Text Only | Print | Product List | Glossary On
Versions: 1 2 3 4 5 6 7 8 9 10 11 12 13 14 15 16 17 18 19 20 21 22 23 24 25 26 27
000
ASUS41 KAKQ 280215
RWRAKQ

REGIONAL WEATHER ROUNDUP
NATIONAL WEATHER SERVICE WAKEFIELD VA
1000 PM EDT THU APR 27 2017

Note: "fair" indicates few or no clouds below 12,000 feet with no
significant weather and/or obstructions to visibility. * = Denotes
station may not report precipitation (e.g., rain,snow,etc.),
thunder or fog.

VAZ042-051-052>054-056-280300-
NORTHERN VIRGINIA

CITY           SKY/WX    TMP DP  RH WIND       PRES   REMARKS
WASH NATIONAL  CLOUDY    77  60  55 SW13      29.82R
DULLES         CLOUDY    75  57  53 S13       29.80R
FORT BELVOIR   CLOUDY    76  59  55 S6        29.82R
QUANTICO       CLOUDY    75  62  64 SW12      29.83R
FREDERICKSBRG* CLOUDY    76  60  56 SW8       29.83R
STAFFORD*      CLOUDY    75  58  56 S9        29.86S
WARRENTON      LGT RAIN  72  58  60 SW14G22   29.83R
CULPEPER*      LGT RAIN  71  63  76 SW8G22    29.85R
MANASSAS*        N/A     74  60  61 S12       29.82R
LEESBURG*      CLOUDY    77  61  57 S10       29.81R
WINCHESTER     CLOUDY    72  55  56 S6        29.80S
FRONT ROYAL*   CLOUDY    70  59  68 SW7       29.81R
LURAY*         MOCLDY    68  61  77 S8        29.84R
$$

VAZ048-049-060>072-079>083-280300-
CENTRAL AND SOUTH CENTRAL VIRGINIA

CITY           SKY/WX    TMP DP  RH WIND       PRES   REMARKS
RICHMOND       CLOUDY    73  60  63 S9        29.87R
CHESTERFIELD*  FAIR     N/A N/A N/A S6        29.88R
PETERSBURG*    CLOUDY    70  58  64 CALM      29.88R
HANOVER        PTCLDY    75  56  51 S9        29.87R
TAPPAHANNOCK*  PTCLDY    74  54  49 S7        29.87R
QUINTON*       FAIR      73  61  64 S7        29.86R
CHARLOTTSVILLE MOCLDY    67  63  87 S7        29.86R
GORDONSVILLE*  CLOUDY    70  62  75 SW6       29.85R
ORANGE*        CLOUDY    66  61  82 W5        29.86R
LOUISA*        RAIN      77  63  61 SW6       29.86R
BUMPASS*       CLOUDY    73  58  60 S7        29.86R
FARMVILLE*     CLOUDY    72  59  65 S5        29.86R
CREWE*         FAIR      71  60  69 CALM      29.87R
FORT PICKETT*  FAIR      69  57  64 S7        29.88R
CHASE CITY*    FAIR      69  60  74 S3        29.88R
CLARKSVILLE*   MOCLDY    70  61  73 S5        29.88R
SOUTH HILL*    CLOUDY    68  61  78 S5        29.94R
LAWRENCEVILLE* FAIR      70  59  69 CALM      29.89R
EMPORIA*       CLOUDY    68  59  73 SE3       29.90S
$$

VAZ088>098-280300-
SOUTHEAST VIRGINIA

CITY           SKY/WX    TMP DP  RH WIND       PRES   REMARKS
NORFOLK        MOCLDY    76  61  59 S16       29.89R
VIRGINIA BEACH MOCLDY    73  59  61 S12       29.89R
NORFOLK NAVAL  MOCLDY    75  61  61 SW10      29.90R
WEST POINT*    CLOUDY    70  60  70 CALM      29.88R
SALUDA*        FAIR      71  62  71 S5        29.87R
NEWPORT NEWS   PTCLDY    73  60  63 SW9       29.88R
LANGLEY AFB    MOCLDY    75  61  62 S9        29.88R
FORT EUSTIS    CLEAR     73  61  64 S3        29.86R
WILLIAMSBURG*  CLEAR     73  63  68 CALM      29.89R
HR EXEC AP*    FAIR      73  61  64 S10       29.88R
FRANKLIN*      PTCLDY    73  60  64 S8        29.90R
US460-WAKEFLD  PTCLDY    73  60  63 S3        29.88R
$$

VAZ020-022-025-037-045-280300-
WEST CENTRAL AND SOUTHWEST VIRGINIA

CITY           SKY/WX    TMP DP  RH WIND       PRES   REMARKS
STAUNTON*      CLOUDY    64  60  85 S9        29.89R
WAYNESBORO*    MOCLDY    63  62  97 SW3       29.88S
HOT SPRINGS VA CLOUDY    59  54  82 SW10G17   29.95R
LYNCHBURG      MOCLDY    68  58  70 CALM      29.90R
DANVILLE       LGT RAIN  69  63  81 NW9       29.89R
SOUTH BOSTON*  CLOUDY    69  58  69 CALM      29.87R
MARTINSVILLE   CLOUDY    62  61  96 CALM      29.93R FOG
ROANOKE        CLOUDY    63  62  97 NW5       29.91S
BLACKSBURG     CLOUDY    59  58  95 CALM      29.96R FOG
DUBLIN*        CLOUDY    60  56  88 CALM      29.94S FOG
MARION*        CLOUDY    61  60  96 CALM      29.97R FOG
HILLSVILLE*    CLOUDY    57  57 100 CALM      29.95R FOG
RICHLANDS*     FAIR      61  58  91 S5        29.93R
WISE*          PTCLDY    61  61 100 S6        29.93R
ABINGDON*      FOG       61  61 100 CALM      29.92R VSB 1/4
$$

MDZ021>025-VAZ099-100-280300-
SOUTHERN MARYLAND AND THE DELMARVA PENINSULA

CITY           SKY/WX    TMP DP  RH WIND       PRES   REMARKS
PATUXENT RIVER MOCLDY    73  63  70 SW8       29.84R
BAY BRIDGE APT CLOUDY    70  63  78 S12       29.83R
LEONARDTOWN    PTCLDY    73  59  60 SW8       29.86R
DOVER          CLEAR     69  69 100 SE8       29.83R
GEORGETOWN     CLEAR     69  63  81 S8        29.86R
EASTON         NOT AVBL
CAMBRIDGE        N/A     70  64  83 S8G16     29.85R
SALISBURY      CLOUDY    67  64  90 S7        29.86R
OCEAN CITY     CLEAR     62  59  90 SW9       29.89R
WALLOPS ISLAND CLEAR     63  61  93 S14       29.89R
ACCOMACK*      CLOUDY    67  63  85 S10       29.88R
$$

NCZ012>017-030>032-280300-
NORTH CENTRAL AND EASTERN NORTH CAROLINA

CITY           SKY/WX    TMP DP  RH WIND       PRES   REMARKS
ROANOKE RAPIDS FAIR      70  61  73 S6        29.90R
RALEIGH        CLOUDY    74  63  68 S9        29.90R
ELIZABETH CITY PTCLDY    73  65  75 S12       29.92R
AHOSKIE*         N/A     69  63  81 S3        29.91R
EDENTON*       PTCLDY    74  65  74 S10       29.93R
CURRITUCK*     PTCLDY    73  62  69 S6        29.93R
KILL DEVIL HLS PTCLDY    71  65  82 S6        29.93R
MANTEO         PTCLDY    71  66  85 SW13      29.95R
CAPE HATTERAS  PTCLDY    73  67  81 SW12      29.97R HAZE
TARBORO*       NOT AVBL
GOLDSBORO      PTCLDY    74  67  80 S7        29.92R
WASHINGTON     MOCLDY    73  63  69 S7        29.95R
GREENVILLE     CLOUDY    73  63  68 SW12G17   29.95R
NEW BERN       PTCLDY    72  64  76 S8        29.97R
WILMINGTON     MOCLDY    74  69  85 S6        29.97R
$$

VAZ048-280300-
ELSEWHERE

CITY           SKY/WX    TMP DP  RH WIND       PRES   REMARKS
HARRISBURG PA  CLOUDY    70  61  73 SE7       29.78R
BALTIMORE      CLOUDY    69  61  75 S5        29.81R
ANNAPOLIS      PTCLDY    68  62  81 S13       29.83R
ANDREWS AFB    CLOUDY    73  59  61 S10       29.82R
PHILADELPHIA   MOCLDY    66  60  81 NE3       29.84R
HENDERSON NC   CLOUDY    68  58  71 S8        29.90R
GREENSBORO     LGT RAIN  67  66  97 W7        29.89R FOG
ROCKY MOUNT    CLOUDY    73  65  75 S8        29.92R
$$

VAZ100-280300-
MARINE

STATION/POSITION TIME  TEMP    WIND        PRES    WAVE   SWELL
                       AIR SEA DIR/SP/G            HT/PER HT/PER
                 (UTC) (F)     (DEG/KT/KT) (MB)    (FT/S) (FT/S)
CAPE MAY NJ      0148   62 58  160/ 11/ 15 1011.2
LEWES DE         0148   68 56  180/  7/ 11 1011.1
15NM E FENWICK I 0050   58 52  170/ 16/ 17 1011.7    4/ 9   3/ 9
WACHAPREAGUE VA  0148   66 67  180/ 11/ 13 1011.4
THOMAS POINT MD  0100   66 59  170/ 20/ 21   N/A
GOOSES REEF MD   0200   63 55  170/ 12/ 14 1010.9    2/ 3
COVE POINT MD    0148   63     190/ 12/ 12 1011.1
SOLOMONS ISLAND  0148   72 61  210/  9/ 10   N/A
BISHOPS HEAD MD  0148   66 69  170/ 12/ 14 1011.3
PINEY POINT MD   0148          160/  5/  6   N/A
POTOMAC MD       0200   64 62  160/  6/  8 1010.1    1
CAMBRIDGE MD     0136   70 63                N/A
LEWISETTA VA     0148   74 66  210/  7/ 10 1010.5
RAPPAHANNOCK LGT 0148          160/ 12/ 14 1012.1
STINGRAY PT      0200   65 63  180/  6/  6 1011.5    1/ 3
YORK RVR RNG VA  0148   72     220/ 10/ 11 1011.0
YORKTOWN VA      0148   76 65  200/  4/  6 1011.3
JAMESTOWN VA     0200   72 69  170/  2/  4   N/A     0
DOMINION TERM VA 0148   71     200/  7/  8 1012.2
KIPTOPEKE VA     0148      64  170/ 11/ 13   N/A
CHES BAY BRIDGE  0148   75 63  220/ 13/ 15 1011.8
CAPE HENRY VA    0148   75     190/  9/ 14   N/A
WILLOUBY STN VA  0148   75     200/ 15/ 17 1012.8
S CRANEY ISL VA  0148   74     200/ 10/ 14 1011.8
CAPE HENRY BUOY  0142      63                N/A     4/ 9   2/11
1ST LANDING BUOY 0200   71 63              1012.2    2/ 3
CAPE CHARLES BUO 0151      59                N/A     4/ 9   2/11
64NM E OF VA BCH 0050   62 57  200/ 12/ 14 1013.6    4/ 8   3/ 8
DUCK PIER NC     0148   72 58  190/ 13/ 16 1012.7
44100 DUCK FRF   0105      62                N/A     4/11   2/11
44056 DUCK FRF   0200      62                N/A     3/11   2/11
OREGON INLET NC  0148          200/ 14/ 17 1013.9
HATTERAS NC      0148   73 72  200/  6/ 10 1014.6
DIAMOND SHLS NC  0050   77 77  210/ 17/ 21 1014.0    5/ 9   3/ 9
CAPE LOOKOUT NC  0100   73     180/ 10/ 11 1013.7R
$$




USA.gov is the U.S. government's official web portal to all federal, state and local government web resources and services.